sat.trackr.live / text

‹ back to catalog

STARLINK-36497

NORAD 67323 · 2026-002U

PAYLOAD ACTIVE UNKNOWN

§ Identity

Operator
Country
US
Launch date
2026-01-04
Launch site
AFETR
Launch vehicle
Mass (kg)
RCS (m²)

Purposes: comms

External: N2YO · Heavens-Above · Gunter

§ Orbital elements

Epoch: 2026-09-19T11:04:45.762528Z

Period
94.27 min
Inclination
43.0055°
Eccentricity
0.0001449
Mean motion
15.27588136 rev/d
Perigee alt
482.0 km
Apogee alt
484.0 km
Semi-major
6,861.2 km
B*
2.8013e-4
RAAN
310.9612°
Arg perigee
250.4919°
Mean anomaly
109.5776°
Rev number
4,077

§ Raw data

STARLINK-364971 67323U 26002U   26262.46164077  .00007456  00000+0  28013-3 0  99922 67323  43.0055 310.9612 0001449 250.4919 109.5776 15.27588136 40779

JSON: /api/v1/satellites/67323 · /tle

For live sub-satellite position, see the globe view (requires WebGL).

§ Visibility from observer

Set your observer location to see the next 7 days of passes ≥ 10°. The values pass through the URL so the page stays shareable.

No JS? Fill the form by hand. The geolocation button needs JavaScript.